KCAV

Details ICAO KCAV
Name CLARION MUNI
Region United States
Timezone America/Chicago (UTC-5.0)
Plans Departing 0
Arriving 0
Stats Elevation 1,162 ft / 354 m (AMSL)
Location 42.742480° -93.758317°
Runways 2
Magnetic Variation 0.780° E
Sunrise 2018-05-26 10:44:29 UTC / 2018-05-26 05:44:29 Local
Sunset 2018-05-27 01:42:36 UTC / 2018-05-26 20:42:36 Local
Advertisement - Login to hide

Runways

ID Width Length Bearing (true) Bearing (mag) Surface Threshold Offset Overrun Length
08 110 ft / 34 m 1,377 ft / 420 m 90.00° 89.22° Grass 0 ft / 0 m 80 ft / 24 m
14 60 ft / 18 m 3,516 ft / 1,072 m 145.82° 145.04° Concrete 0 ft / 0 m 0 ft / 0 m
26 110 ft / 34 m 1,377 ft / 420 m 270.00° 269.22° Grass 0 ft / 0 m 80 ft / 24 m
32 60 ft / 18 m 3,516 ft / 1,072 m 325.82° 325.04° Concrete 0 ft / 0 m 0 ft / 0 m

Map

Weather


0- 5 10 15 20 25 30 35+ Temperature / ° C

Clouds and Precipitation
Forecast for 2018-05-26 06:00 UTC. Updated 6 hours ago

Ground ~20,000 ft ~40,000 ft Winds

METAR

KCAV 261035Z AUTO 18007KT 10SM CLR 18/17 A2975 RMK AO2 PWINO

TAF

Not found

Frequencies

Recorded 126.57 MHz AWOS 3
Approach 134.00 MHz MINNEAPOLIS CNTR
Unicom 122.80 MHz CTAF/UNICOM
Warning: Do not use this data for real-world aviation or navigation. No guarantee of current accuracy is given.